Regional Weather Roundup
Issued by NWS

Home | Current Version | Previous Version | Graphics & Text | Print | Product List | Glossary On
Versions: 1 2 3 4 5 6 7 8 9 10 11 12 13 14 15 16 17 18 19 20 21 22 23 24 25 26 27 28 29 30 31 32 33 34 35 36 37 38 39 40 41 42 43 44 45 46 47 48 49 50
159
ASUS45 KSLC 271410
RWRUT

UTAH REGIONAL WEATHER ROUNDUP
NATIONAL WEATHER SERVICE SALT LAKE CITY UT
800 AM MDT WED JUL 27 2016

UTZ001>011-023>025-271500-

NORTHERN UTAH

CITY           SKY/WX    TMP DP  RH WIND       PRES   REMARKS
BRIGHAM CITY     N/A     63  40  42 CALM      30.13R
DUGWAY         SUNNY     68  28  22 S2        30.14
HILL AFB       SUNNY     70  32  24 E17       30.15R
LOGAN          SUNNY     60  44  55 CALM      30.16R
OGDEN          SUNNY     70  34  26 S8        30.12R
PROVO AIRPORT  SUNNY     66  43  42 VRB3      30.15R
SALT LAKE CITY SUNNY     77  42  28 SE9       30.11R
VERNAL         SUNNY     68  43  40 CALM      30.21R
WENDOVER       SUNNY     72  41  33 CALM      30.14S
HEBER CITY     SUNNY     57  39  51 CALM      30.26R

$$

UTZ012>022-026-027-271500-

SOUTHERN/CENTRAL UTAH

CITY           SKY/WX    TMP DP  RH WIND       PRES   REMARKS
BLANDING       SUNNY     69  54  58 N3        30.34R
BRYCE CANYON   SUNNY     57  42  57 W6        30.40R
CEDAR CITY     SUNNY     75  41  29 S7        30.21R
DELTA          SUNNY     72  28  20 CALM      30.15R
MILFORD        SUNNY     68  40  35 CALM      30.17R
MOAB/CYNLANDS  SUNNY     77  41  27 SE7       30.13R
PRICE          SUNNY     70  36  28 SE5       30.24R
ST GEORGE      SUNNY     84  43  23 E8        30.03R

$$

REGIONAL REPORTS     COLORADO/ARIZONA

CITY           SKY/WX    TMP DP  RH WIND       PRES   REMARKS
CRAIG, CO      SUNNY     56  44  64 CALM      30.30R
GRAND JUNCTION SUNNY     70  44  39 S9        30.20R
RIFLE          SUNNY     64  41  42 NE3       30.28R
MONTROSE       SUNNY     66  42  41 E6        30.29R
CORTEZ         SUNNY     64  47  53 CALM      30.28R
PAGE, AZ       SUNNY     79  44  28 CALM      30.12R
GRAND CANYON   SUNNY     62  47  57 CALM      30.32R
KINGMAN        SUNNY     85  51  31 CALM      30.04R
FLAGSTAFF      SUNNY     59  55  87 CALM      30.35R

$$

REGIONAL REPORTS    NEVADA/IDAHO/WYOMING

CITY           SKY/WX    TMP DP  RH WIND       PRES   REMARKS
LAS VEGAS, NV  SUNNY     92  43  18 CALM      29.86R
ELY            MOSUNNY   54  21  27 S8        30.30R
ELKO           SUNNY     61  30  31 E5        30.21R
POCATELLO, ID  SUNNY     61  42  49 CALM      30.17R
BURLEY         SUNNY     60  50  69 CALM      30.14R
EVANSTON, WY   SUNNY     62  27  26 S7        30.34R
ROCK SPRINGS   SUNNY     63  35  35 N6        30.30R
KEMMERER         N/A     57  32  38 N8        30.35R

$$




USA.gov is the U.S. government's official web portal to all federal, state and local government web resources and services.